TimeMDT,TemperatureF,Dew PointF,Humidity,Sea Level PressureIn,VisibilityMPH,Wind Direction,Wind SpeedMPH,Gust SpeedMPH,PrecipitationIn,Events,Conditions,WindDirDegrees,DateUTC
12:53 AM,46.9,36.0,66,30.06,10.0,NNE,4.6,-,N/A,,Overcast,30,2013-05-21 06:53:00
1:53 AM,46.9,37.0,68,30.04,10.0,South,3.5,-,N/A,,Overcast,170,2013-05-21 07:53:00
2:53 AM,46.0,37.0,71,30.02,10.0,South,3.5,-,N/A,,Overcast,190,2013-05-21 08:53:00
3:53 AM,45.0,34.0,65,30.03,10.0,SSE,4.6,-,N/A,,Mostly Cloudy,150,2013-05-21 09:53:00
4:53 AM,44.1,36.0,73,30.03,10.0,South,5.8,-,N/A,,Mostly Cloudy,170,2013-05-21 10:53:00
5:53 AM,44.1,36.0,73,30.04,10.0,Calm,Calm,-,N/A,,Mostly Cloudy,0,2013-05-21 11:53:00
6:53 AM,46.9,37.0,68,30.03,10.0,Calm,Calm,-,N/A,,Mostly Cloudy,0,2013-05-21 12:53:00
7:53 AM,48.9,34.0,56,30.03,10.0,SSW,4.6,-,N/A,,Clear,210,2013-05-21 13:53:00
8:53 AM,52.0,34.0,50,30.02,10.0,SSW,3.5,-,N/A,,Clear,200,2013-05-21 14:53:00
9:53 AM,53.1,34.0,48,30.01,10.0,WNW,4.6,-,N/A,,Mostly Cloudy,300,2013-05-21 15:53:00
10:53 AM,55.0,34.0,45,29.99,10.0,Calm,Calm,-,N/A,,Mostly Cloudy,0,2013-05-21 16:53:00
11:53 AM,55.9,34.0,44,29.97,10.0,Variable,3.5,-,N/A,,Scattered Clouds,0,2013-05-21 17:53:00
12:53 PM,57.9,34.0,41,29.94,10.0,South,4.6,-,N/A,,Clear,170,2013-05-21 18:53:00
1:53 PM,61.0,33.1,35,29.91,10.0,Variable,5.8,-,N/A,,Clear,0,2013-05-21 19:53:00
2:53 PM,62.1,32.0,32,29.88,10.0,ENE,8.1,-,N/A,,Partly Cloudy,60,2013-05-21 20:53:00
3:53 PM,64.0,30.9,29,29.86,10.0,Variable,4.6,-,N/A,,Clear,0,2013-05-21 21:53:00
4:53 PM,64.0,30.0,28,29.83,10.0,East,8.1,-,N/A,,Clear,100,2013-05-21 22:53:00
5:53 PM,64.0,28.9,27,29.82,10.0,Calm,Calm,-,N/A,,Clear,0,2013-05-21 23:53:00
6:53 PM,64.0,28.9,27,29.79,10.0,ENE,6.9,-,N/A,,Clear,60,2013-05-22 00:53:00
7:53 PM,61.0,32.0,34,29.80,10.0,ENE,3.5,-,N/A,,Clear,70,2013-05-22 01:53:00
8:53 PM,57.9,30.9,36,29.80,10.0,NE,3.5,-,N/A,,Clear,50,2013-05-22 02:53:00
9:53 PM,55.0,30.9,40,29.81,10.0,NE,8.1,-,N/A,,Clear,50,2013-05-22 03:53:00
10:53 PM,53.1,35.1,50,29.81,10.0,East,15.0,20.7,N/A,,Overcast,90,2013-05-22 04:53:00
11:53 PM,50.0,35.1,57,29.82,10.0,ENE,11.5,-,0.00,,Clear,70,2013-05-22 05:53:00